Lapse_Rate
5.5 5.4 5.3 5.1 5.1 5.1 5.1 5.2 5.4 5.4 5.4 5.4 5.3 5.2 5.1 5.1 5.2 5.4 5.5 5.5 5.6 5.5 5.6 5.6 5.5 5.5 5.3 5.2 5.4 5.3 5.2 4.9 4.9 4.9 4.9 5.0 5.1 5.0 4.7 4.9 4.8 4.8 4.8
5.4 5.3 5.2 5.0 5.0 5.1 5.1 5.3 5.5 5.2 5.2 5.1 5.1 5.3 5.2 5.3 5.3 5.4 5.5 5.5 5.6 5.7 5.6 5.6 5.4 5.3 5.4 5.3 5.1 5.2 5.1 4.9 4.9 4.8 4.7 4.9 4.9 4.9 4.9 4.9 4.9 4.7 4.8
5.4 5.4 5.3 5.1 5.1 5.2 5.2 5.2 5.3 5.2 5.2 5.3 5.2 5.3 5.4 5.5 5.4 5.5 5.6 5.6 5.5 5.4 5.3 5.4 5.4 5.2 5.2 5.3 5.1 5.0 5.0 5.0 5.1 5.1 5.2 5.1 5.2 5.2 5.1 5.1 5.1 5.0 4.8
5.5 5.4 5.3 5.2 5.1 5.2 5.3 5.4 5.3 5.2 5.2 5.4 5.4 5.4 5.5 5.6 5.6 5.7 5.5 5.3 5.4 5.2 5.2 5.4 5.0 5.1 5.3 5.0 5.1 5.0 5.0 5.0 5.1 5.2 5.2 5.1 5.2 5.4 5.1 5.0 4.8 5.0 5.1
5.6 5.5 5.4 5.4 5.4 5.1 5.2 5.2 5.3 5.5 5.4 5.4 5.4 5.3 5.4 5.6 5.7 5.8 5.4 5.4 5.5 5.2 5.2 5.4 5.1 5.4 5.3 5.1 5.0 4.9 4.9 5.1 5.3 5.3 5.3 5.2 5.2 5.3 5.3 4.9 4.7 5.1 5.4
5.5 5.5 5.5 5.5 5.5 5.5 5.5 5.5 5.5 5.6 5.6 5.4 5.2 5.2 5.2 5.4 5.5 5.5 5.4 5.5 5.5 5.6 5.4 5.4 5.4 5.3 5.3 5.2 5.1 4.8 5.0 5.1 5.1 5.2 5.3 5.3 5.3 5.4 5.4 5.3 5.2 5.2 5.5
5.4 5.4 5.6 5.5 5.5 5.5 5.5 5.6 5.7 5.7 5.6 5.4 5.5 5.4 5.2 5.3 5.4 5.5 5.4 5.5 5.7 5.7 5.6 5.5 5.5 5.4 5.4 5.3 5.2 5.1 5.1 5.1 5.0 5.0 5.1 5.3 5.4 5.4 5.5 5.5 5.5 5.5 5.5
5.6 5.7 5.7 5.7 5.6 5.6 5.7 5.6 5.6 5.7 5.6 5.6 5.4 5.3 5.4 5.5 5.6 5.5 5.3 5.5 5.7 5.6 5.5 5.5 5.4 5.3 5.4 5.5 5.5 5.4 5.2 5.2 5.2 5.3 5.2 5.2 5.3 5.3 5.3 5.4 5.4 5.5 5.7
5.7 5.7 5.8 5.7 5.8 5.7 5.7 5.7 5.8 5.7 5.6 5.5 5.7 5.6 5.4 5.6 5.5 5.5 5.2 5.5 5.8 5.6 5.5 5.5 5.5 5.5 5.6 5.6 5.6 5.6 5.3 5.2 5.3 5.3 5.4 5.2 5.2 5.3 5.5 5.3 5.3 5.4 5.4
5.7 5.8 5.9 5.8 5.7 5.9 5.9 6.0 5.9 5.8 5.6 5.6 5.5 5.6 5.7 5.8 5.7 5.5 5.5 5.4 5.7 5.7 5.7 5.6 5.4 5.4 5.4 5.6 5.6 5.6 5.5 5.5 5.5 5.5 5.4 5.3 5.2 5.3 5.5 5.5 5.4 5.3 5.4
5.8 5.7 5.8 5.9 5.9 6.0 6.0 6.1 6.0 5.9 5.7 5.5 5.5 5.7 5.7 5.6 5.8 5.8 5.5 5.5 5.8 5.7 6.0 5.7 5.4 5.5 5.3 5.4 5.6 5.5 5.4 5.4 5.4 5.4 5.5 5.4 5.4 5.4 5.5 5.5 5.5 5.4 5.5
5.9 5.8 5.7 5.7 5.9 5.9 6.0 6.1 5.9 5.9 5.9 5.4 5.3 5.4 5.7 5.8 5.8 5.8 5.6 5.5 5.6 5.8 5.7 5.7 5.3 5.4 5.2 5.4 5.5 5.5 5.4 5.2 5.1 5.2 5.5 5.4 5.3 5.4 5.4 5.3 5.3 5.4 5.4
5.7 5.7 5.8 5.7 5.6 5.6 5.9 5.9 5.7 5.6 5.9 5.8 5.5 5.3 5.3 5.6 5.6 5.5 5.7 5.5 5.5 5.6 5.5 5.6 5.4 5.4 5.1 5.2 5.3 5.3 5.3 5.2 5.2 5.1 5.4 5.4 5.3 5.4 5.3 5.2 5.2 5.2 5.3
5.6 5.5 5.5 5.6 5.6 5.6 5.6 5.5 5.6 5.5 5.7 5.9 5.7 5.4 5.5 5.4 5.5 5.5 5.5 5.5 5.4 5.5 5.4 5.5 5.2 5.2 5.1 5.1 5.2 5.2 5.2 5.2 5.0 5.2 5.2 5.3 5.4 5.4 5.4 5.2 5.3 5.2 5.2
5.9 5.6 5.6 5.7 5.6 5.5 5.6 5.6 5.5 5.5 5.6 5.9 5.9 5.6 5.6 5.6 5.5 5.6 5.6 5.6 5.5 5.5 5.2 5.5 5.4 5.3 5.2 5.1 5.0 5.2 5.2 5.3 5.3 5.4 5.4 5.5 5.6 5.5 5.4 5.3 5.2 5.2 5.3
5.9 5.8 5.8 5.7 5.7 5.6 5.6 5.5 5.4 5.3 5.3 5.5 5.6 5.9 6.0 5.7 5.6 5.6 5.6 5.8 5.7 5.7 5.3 5.5 5.2 5.4 5.2 5.2 5.1 5.3 5.4 5.4 5.5 5.6 5.7 5.8 5.9 5.8 5.6 5.6 5.8 5.7 5.7
5.8 5.8 5.8 5.8 5.8 5.7 5.7 5.7 5.4 5.3 5.3 5.4 5.6 5.8 6.0 5.7 5.6 5.6 5.6 5.8 5.9 5.9 5.5 5.4 5.6 5.4 5.4 5.3 5.1 5.1 5.1 5.3 5.5 5.7 6.0 6.0 5.9 5.9 5.9 6.0 6.0 6.0 5.9
5.9 6.0 6.0 6.0 6.0 5.9 5.8 5.8 5.6 5.4 5.3 5.5 5.7 5.8 6.0 6.1 5.8 5.6 5.6 5.7 5.9 5.9 5.6 5.5 5.5 5.5 5.7 5.2 5.0 5.0 4.9 5.1 5.5 5.8 5.9 5.8 6.0 6.1 5.9 5.8 5.9 5.9 5.8
5.3 5.6 5.8 5.8 5.7 5.8 5.9 6.0 5.9 5.6 5.5 5.6 5.7 5.9 6.0 6.3 6.1 6.0 5.8 5.6 5.6 5.7 5.8 5.4 5.3 5.6 5.6 5.4 4.9 5.1 4.7 5.1 5.6 5.8 5.7 5.6 6.0 6.1 5.8 5.6 5.7 5.8 5.9
5.3 5.3 5.5 5.8 5.8 5.7 5.9 5.9 5.9 5.6 5.5 5.7 5.6 5.7 5.8 6.2 6.1 5.9 5.7 5.6 5.5 5.7 5.8 5.6 5.5 5.5 5.4 5.4 5.1 5.0 4.7 5.0 5.4 5.6 5.6 5.6 5.9 6.0 5.9 5.8 5.7 5.7 5.7
6.0 5.8 5.4 5.4 5.7 5.7 5.7 5.8 5.8 5.6 5.6 5.6 5.6 5.6 5.7 5.7 5.9 5.8 5.7 5.7 5.5 5.4 5.6 5.9 5.6 5.5 5.4 5.3 5.3 5.1 4.7 5.1 5.2 5.3 5.2 5.5 5.6 5.9 6.0 5.7 5.5 5.4 5.6
6.3 6.1 5.9 5.8 5.7 5.7 5.8 5.9 6.1 6.0 6.0 6.1 6.0 5.8 5.6 5.6 5.4 5.6 5.7 5.6 5.6 5.2 5.6 5.8 5.9 5.7 5.5 5.4 5.3 5.2 5.3 5.0 5.3 5.1 5.0 5.1 5.4 5.7 5.8 5.7 5.4 5.4 5.5
6.4 6.5 6.2 6.1 6.0 6.0 6.0 6.2 6.3 6.3 6.2 6.1 5.9 5.8 5.7 5.7 5.6 5.6 5.6 5.6 5.6 5.5 5.4 5.7 5.7 5.8 5.9 5.5 5.2 5.2 5.1 4.7 5.0 4.9 4.8 5.1 4.9 5.4 5.6 5.7 5.3 5.3 5.3
6.3 6.5 6.6 6.3 6.1 6.0 6.1 6.2 6.4 6.4 6.2 6.1 6.0 6.0 6.0 5.9 5.7 5.6 5.5 5.4 5.5 5.5 5.6 5.8 5.5 5.6 5.7 5.8 5.4 5.0 5.0 4.7 4.5 4.5 4.6 4.8 4.8 5.2 5.4 5.6 5.4 5.3 5.3
5.7 6.2 6.2 6.2 6.2 6.0 6.0 6.3 6.4 6.3 6.2 6.3 6.2 6.1 6.0 5.8 5.8 5.7 5.6 5.4 5.4 5.4 5.6 5.8 5.7 5.5 5.7 6.0 5.8 5.3 5.1 4.8 4.5 4.2 4.3 4.5 4.7 5.0 5.3 5.5 5.4 5.2 5.2
6.5 6.0 5.8 6.4 6.2 6.2 6.1 6.1 6.4 6.5 6.2 6.1 6.2 6.2 6.1 5.9 5.8 5.8 5.7 5.6 5.4 5.4 5.6 5.6 5.7 5.7 5.7 5.8 5.9 5.7 5.2 5.0 4.7 4.2 4.2 4.3 4.4 4.7 5.1 5.3 5.3 5.2 5.2
Wind_Speed
4 10 14 14 13 12 12 11 12 13 13 11 10 9 8 9 8 8 8 8 8 7 7 6 5 3 7 5 3 9 12 8 7 7 4 9 6 8 4 8 10 8 8
9 14 13 13 11 10 10 10 9 9 10 10 9 9 8 8 8 8 7 8 7 7 7 7 8 8 9 8 6 1 3 3 7 13 9 8 5 10 15 13 7 8 5
10 14 13 13 11 9 8 8 7 7 7 7 8 7 8 8 7 7 7 6 6 7 7 8 9 9 9 8 7 4 2 5 8 15 9 8 5 9 10 12 12 10 8
15 15 14 14 12 10 8 6 6 5 4 6 5 7 8 8 8 8 6 6 6 7 8 7 8 8 9 9 6 2 5 9 11 13 6 5 4 7 8 10 13 13 8
11 15 16 15 11 9 8 7 5 3 3 4 6 8 8 8 7 6 7 8 9 9 8 7 7 8 9 10 8 6 9 9 8 7 5 3 4 6 4 9 11 13 15
8 11 15 14 11 8 5 4 4 2 3 6 7 7 7 8 8 8 9 10 10 8 8 7 8 11 13 14 13 13 11 9 9 8 5 5 3 3 7 9 9 8 11
7 10 13 13 11 9 7 4 1 1 2 4 7 8 8 7 7 10 11 11 13 9 7 11 12 13 13 17 18 14 13 12 8 7 5 4 5 6 9 8 10 10 11
7 10 13 13 11 9 6 5 2 1 3 6 6 8 9 10 9 8 10 12 13 9 7 12 15 16 16 16 17 15 12 12 9 8 6 5 7 11 11 10 10 9 8
8 9 10 12 11 9 6 4 2 1 3 5 8 9 9 11 11 10 12 13 14 8 13 17 16 17 18 18 18 17 17 16 11 7 9 6 10 11 9 9 10 9 7
5 6 8 9 9 8 6 5 2 2 4 5 8 10 12 12 10 11 11 17 19 14 17 19 18 19 20 19 19 17 17 16 12 10 7 8 10 11 9 10 10 8 6
5 4 6 7 9 10 7 5 3 2 4 8 9 10 11 11 11 11 11 13 16 12 15 17 19 20 20 19 20 19 17 12 12 11 8 9 9 10 9 9 9 8 8
8 6 4 6 7 9 8 4 1 2 5 7 8 10 8 11 10 9 7 11 12 14 15 19 21 19 17 12 13 16 13 14 14 14 15 18 19 17 13 11 11 10 10
10 9 7 6 9 8 5 5 2 2 3 5 7 8 8 10 10 11 10 11 10 10 9 10 12 11 14 13 12 13 13 13 13 14 18 19 20 20 20 18 17 16 16
11 13 8 8 7 8 8 6 5 3 1 3 6 6 6 7 8 8 8 9 10 8 8 9 10 12 14 14 12 13 14 13 13 13 19 22 20 20 20 20 20 19 19
12 10 10 7 6 7 6 6 5 4 2 1 4 7 6 6 4 6 6 8 9 9 8 8 9 9 11 12 12 12 14 16 16 14 16 22 21 22 21 20 19 20 20
10 11 10 9 8 8 5 7 5 5 4 1 3 4 5 5 5 5 3 5 8 9 8 8 8 7 7 11 10 11 12 14 15 16 14 16 21 21 22 22 21 20 20
12 10 11 10 8 6 5 7 6 8 5 3 2 3 3 4 4 5 3 3 7 8 10 10 9 10 7 9 8 10 10 13 14 15 15 16 14 20 20 19 18 19 18
10 11 9 9 9 7 5 7 6 8 6 4 3 2 4 1 2 2 3 3 5 7 8 5 4 5 6 5 6 5 7 12 14 15 15 14 14 14 16 20 19 18 17
11 10 10 10 9 9 5 4 6 6 6 6 5 4 4 2 2 2 3 4 5 5 4 4 3 4 5 5 6 4 4 6 11 13 13 15 15 13 11 16 19 17 17
10 9 10 9 8 7 4 3 2 2 5 7 6 5 6 3 4 3 3 3 5 3 3 3 3 4 3 5 6 6 5 5 10 10 10 13 13 12 13 15 15 14 16
13 12 12 11 9 8 3 3 2 3 2 3 7 7 7 6 5 4 3 3 3 2 3 4 3 5 3 4 4 6 5 6 8 6 9 10 12 11 12 13 13 13 14
15 15 14 14 11 10 7 3 2 3 2 2 3 6 7 8 7 5 4 3 3 3 4 3 3 2 2 1 3 2 2 2 5 6 5 6 9 10 10 11 13 15 15
15 16 16 16 14 12 10 4 2 2 1 1 2 2 5 7 9 7 6 4 3 2 3 3 4 4 3 2 3 2 2 1 3 3 5 4 6 5 7 8 10 13 14
17 14 12 12 13 12 11 9 8 4 4 3 3 3 4 8 8 8 7 6 5 4 3 3 4 3 3 3 1 1 3 3 3 2 2 3 4 4 5 6 6 9 11
14 13 9 12 12 11 13 12 9 5 4 3 2 4 4 4 8 8 8 5 4 4 3 4 4 4 2 2 3 2 2 1 3 2 2 1 2 3 3 3 4 5 8
12 13 13 12 13 12 13 12 12 11 8 5 4 4 4 3 3 7 8 7 6 4 5 4 4 5 4 3 2 3 3 2 3 3 3 2 1 1 1 2 1 2 4
Wind_Direction
174 153 143 138 133 124 119 109 104 104 99 88 80 77 76 66 62 54 45 40 40 35 26 10 352 327 280 309 147 173 199 230 137 124 85 65 58 64 108 90 61 46 47
135 144 146 141 132 125 119 111 99 92 87 84 68 57 48 50 51 44 39 37 30 18 5 343 327 319 320 330 324 255 222 146 137 146 158 140 111 85 94 87 90 79 65
135 144 150 143 135 131 124 111 102 92 86 80 73 52 40 39 35 34 33 24 10 358 335 327 329 330 328 330 327 340 344 71 50 154 138 83 92 95 115 131 119 103 78
139 144 153 148 147 141 135 119 106 93 78 59 47 49 29 28 23 21 9 359 347 335 334 345 347 350 4 0 347 4 58 77 91 102 84 60 80 119 133 143 139 128 115
137 143 155 156 156 151 144 137 128 121 72 32 18 28 23 19 16 8 346 345 335 336 341 1 3 16 28 35 39 86 83 63 93 87 84 80 83 122 104 153 133 141 144
118 138 158 159 155 147 138 134 134 106 47 11 359 10 17 16 4 349 338 328 323 345 354 16 19 52 59 42 66 92 83 71 84 79 83 103 98 111 99 116 134 150 151
123 147 153 159 157 154 151 144 115 45 18 356 349 357 357 8 354 345 323 318 318 335 8 37 77 66 68 70 75 70 77 76 82 82 93 94 88 113 105 112 125 115 135
134 139 154 157 160 164 165 160 174 336 338 335 348 2 353 350 344 335 334 338 332 352 43 76 87 76 81 76 72 68 73 77 80 81 78 87 96 99 106 107 117 127 135
136 134 154 164 162 168 171 177 198 290 322 337 347 348 345 337 351 355 1 350 357 39 76 98 90 88 79 75 75 75 76 75 74 81 84 75 96 97 117 124 123 117 132
134 142 156 173 171 163 177 182 214 274 312 332 346 343 337 345 2 355 360 19 35 83 89 101 97 85 80 78 76 71 66 64 61 73 82 87 85 91 90 94 99 98 107
152 164 173 176 178 171 183 194 211 276 321 346 340 333 350 350 14 5 17 16 41 70 91 106 95 85 82 78 78 73 60 44 54 57 59 76 83 91 91 84 81 94 98
175 180 181 182 184 180 180 175 208 319 335 339 336 335 352 2 8 27 36 30 48 51 66 96 93 86 82 76 74 72 65 53 54 57 63 72 77 77 86 83 85 86 88
176 183 184 178 184 184 177 172 198 266 327 343 356 351 355 14 17 37 45 42 43 51 72 83 86 81 85 80 73 70 68 66 64 60 61 67 70 75 79 83 84 86 87
180 187 183 181 177 190 184 186 191 230 265 351 351 1 24 20 18 32 42 45 60 43 86 81 88 90 85 78 71 70 67 65 62 65 61 63 68 72 75 77 80 79 76
182 186 188 181 184 188 182 197 201 218 216 316 1 6 48 23 27 31 42 64 55 78 92 100 99 91 89 82 67 70 77 71 65 63 62 64 66 67 66 72 75 74 72
187 191 185 189 189 184 188 191 204 218 228 263 348 24 39 46 15 22 36 68 68 80 100 104 111 101 89 92 79 62 68 75 74 67 59 53 59 63 67 66 67 67 64
193 185 191 187 184 191 193 199 202 214 220 235 303 340 9 57 35 6 50 76 99 105 100 98 97 100 93 91 87 70 64 64 68 68 65 59 47 63 66 65 65 64 67
181 188 183 192 188 194 198 193 204 218 225 238 256 315 332 42 92 35 65 63 86 108 114 106 113 97 104 95 91 82 80 72 65 64 65 66 53 49 53 67 65 66 62
186 178 182 186 186 195 193 193 209 212 227 236 247 265 309 278 169 132 84 75 86 81 99 115 96 119 119 107 107 90 79 70 69 69 63 64 57 53 55 53 54 63 67
183 185 183 186 180 178 151 145 214 196 247 238 230 232 266 245 184 142 119 96 106 100 100 96 95 79 110 117 95 74 67 72 75 67 65 65 59 51 54 57 52 45 62
180 174 186 180 182 168 161 170 212 220 211 236 219 215 234 215 186 160 164 128 118 118 119 119 96 99 93 120 103 84 61 71 77 66 61 67 61 49 48 55 53 53 48
185 183 183 189 181 187 182 168 166 160 217 223 201 197 225 202 185 189 174 154 169 131 119 134 133 117 103 165 121 120 131 95 59 66 43 65 60 55 40 46 59 56 54
188 186 189 188 185 187 181 141 111 115 95 218 210 188 211 197 189 201 195 150 134 133 145 160 153 141 149 231 173 131 131 153 116 54 36 54 61 56 48 33 56 60 58
190 182 187 189 185 187 170 177 185 181 186 204 214 178 189 210 210 202 212 183 159 160 152 166 158 151 138 177 220 248 42 137 142 138 62 38 66 58 50 33 40 61 62
165 177 179 182 188 185 181 183 189 190 196 176 188 200 189 209 213 199 202 204 192 176 184 168 159 165 184 168 185 157 114 94 118 135 142 167 63 47 67 53 22 59 68
149 127 220 189 192 186 182 183 189 199 196 184 186 200 210 198 212 212 209 210 205 199 194 193 190 180 189 214 193 198 167 179 166 148 116 124 152 88 45 81 38 36 76